Weather in Corpus Christi

United States     27°45′01″N   97°27′08″W
temp.,
°C
wind,
m/s
gust,
m/s
humid.,
%
clouds,
%
prec.,
mm/h
press.,
hPa
HPBL,
m
16 may, sun
sun1601:00+23se6129095 0.3 1015596
04:00+23se61192100 0.6 1013484
07:00+23se511915 0.8 1013413
10:00+27se897651 0.6 1015974
13:00+28sse9107042 1.4 10141235
16:00+29sse9116840 0.3 10111238
19:00+26se8118220 0.3 1011820
22:00+24sse7139031 0.0 1012665
17 may, mon
mon1701:00+24sse7149247 0.0 1011729
04:00+24sse6139553 0.1 1010644
07:00+24sse6129547 0.3 1010609
10:00+28sse9117546 0.2 10111129
13:00+30sse9106778 0.4 10101298
16:00+30sse9106519 0.0 10081116
19:00+27se812820 0.0 1008672
22:00+24se7139425 0.0 1009562
18 may, tue
tue1801:00+25se8159458 0.0 1010697
04:00+25se6119137 1.0 1009577
07:00+25se8149450 1.1 1009692
10:00+28sse10137430 0.1 10101142
13:00+30sse1013631 0.1 10091345
16:00+30se10116719 0.0 10071137
19:00+27se9128416 0.0 1006745
22:00+25se7139461 0.0 1008615
19 may, wed
wed1901:00+25se9169366 0.1 1008735
04:00+25se8149165 0.1 1007781
07:00+25se7139131 0.3 1009679
10:00+27se91382100 0.3 1009871
13:00+30se101371100 0.4 10091346
16:00+29se91170100 1.2 10071227
19:00+20nne91294100 19.9 1009439
22:00+20ene2592100 18.4 1010219
20 may, thu
thu2001:00+19sw6998100 37.3 1008473
04:00+20s2394100 25.6 1010183
07:00+20sw139169 25.8 1010132
10:00+23ne227455 0.0 1012555
13:00+26ese43652 0.0 1012933
16:00+26e23640 0.0 1010666
19:00+24ese57740 0.0 1010329
22:00+22e48890 0.0 1010232